Regional Weather Roundup
Issued by NWS

Home | Current Version | Previous Version | Text Only | Print | Product List | Glossary Off
Versions: 1 2 3 4 5 6 7 8 9 10 11 12 13 14 15 16 17 18 19 20 21 22 23 24 25 26 27 28 29 30 31 32 33 34 35 36 37 38 39 40 41 42 43 44 45 46 47 48 49 50

000
ASUS43 KDMX 030007
RWRIA

WEATHER ROUNDUP FOR IOWA
NATIONAL WEATHER SERVICE DES MOINES IA
700 PM CDT WED SEP 02 2015

NOTE: "FAIR" INDICATES FEW OR NO CLOUDS BELOW 12,000 FEET WITH NO
SIGNIFICANT WEATHER AND/OR OBSTRUCTIONS TO VISIBILITY.

* - THESE STATIONS ARE NOT NWS STATIONS...THUS NOT UNDER NWS
QUALITY CONTROL.  THEY ALSO DO NOT REPORT WEATHER SUCH
AS PRECIPITATION OR FOG.

IAZ001>003-012>014-020>022-031>034-043>046-030100-
   NORTHWEST IOWA

CITY           SKY/WX    TMP DP  RH WIND       PRES   REMARKS
CARROLL *      PTCLDY    81  72  74 SW9       29.86R HX  84
CHEROKEE *     CLEAR     82  74  76 S5        29.84S HX  88
DENISON *      CLEAR     81  73  78 S8G14     29.84R HX  85
LE MARS *      CLEAR     82  75  78 S9        29.83S HX  89
ORANGE CITY *  CLEAR     82  73  74 S8        29.84R HX  88
SHELDON *      CLEAR     82  73  74 S7        29.83S HX  88
SIOUX CITY     CLEAR     84  67  56 S7        29.81S HX  86
6HR MIN TEMP:  84; 6HR MAX TEMP:  87;

SPENCER        CLEAR     82  71  69 S8        29.85R HAZE    HX  86
6HR MIN TEMP:  82; 6HR MAX TEMP:  86;

STORM LAKE *   CLEAR     81  73  78 S7        29.87R HX  85
$$

IAZ055>058-069>071-079>083-090>094-030100-
   SOUTHWEST IOWA

CITY           SKY/WX    TMP DP  RH WIND       PRES   REMARKS
ATLANTIC *     PTCLDY    82  72  69 S10       29.86S HX  87
AUDUBON *      CLEAR     81  72  74 S7        29.88S HX  84
CLARINDA *     CLEAR     82  73  74 S7        29.89S HX  88
COUNCIL BLFS * CLEAR     84  73  70 S10       29.85S HX  91
CRESTON *      CLEAR     81  72  74 S8        29.91S HX  84
LAMONI         PTCLDY    84  72  67 S8        29.91F HX  89
6HR MIN TEMP:  82; 6HR MAX TEMP:  85;

RED OAK *      MOCLDY    82  72  69 S10       29.87S HX  87
SHENANDOAH *   CLEAR     84  73  70 S10       29.87S HX  91
$$

IAZ047>049-059>061-072>074-084-030100-
   CENTRAL IOWA

CITY           SKY/WX    TMP DP  RH WIND       PRES   REMARKS
AMES           CLEAR     82  70  66 S8        29.89R HX  86
6HR MIN TEMP:  82; 6HR MAX TEMP:  87;

ANKENY *       MOCLDY    82  68  61 S9        29.89R HX  85
CHARITON *     MOCLDY    81  72  74 S8G14     29.92S HX  84
DES MOINES     PTCLDY    83  68  60 S7        29.89R HX  86
6HR MIN TEMP:  83; 6HR MAX TEMP:  89;

GRINNELL*      CLEAR     81  68  65 S7        29.92S HX  83
KNOXVILLE *    CLEAR     81  70  69 S9        29.90S HX  84
MARSHALLTOWN   CLEAR     82  70  66 S7        29.89S HX  86
6HR MIN TEMP:  82; 6HR MAX TEMP:  86;

PELLA *        CLEAR     81  73  76 S9        29.92R HX  86
PERRY *          N/A     82  70  68 S7        29.88R HX  85
$$

IAZ004>006-015-016-023>025-035-036-030100-
   NORTH CENTRAL IOWA

CITY           SKY/WX    TMP DP  RH WIND       PRES   REMARKS
ALGONA *       CLEAR     82  73  74 S6        29.87R HX  88
CLARION *      CLEAR     81  72  74 S5        29.88S HX  84
ESTHERVILLE    CLEAR     81  72  74 S5        29.86R HX  85
6HR MIN TEMP:  81; 6HR MAX TEMP:  84;

FORT DODGE *   CLEAR     82  72  69 S6        29.88R HX  87
MASON CITY     CLEAR     82  73  74 S6        29.90R HX  87
6HR MIN TEMP:  82; 6HR MAX TEMP:  86;

FOREST CITY *  CLEAR     81  70  69 S7        29.88S HX  84
IOWA FALLS *     N/A     82  72  69 S6        29.90S HX  87
$$

IAZ007>011-017>019-026>030-037>042-050>054-066-030100-
   NORTHEAST IOWA

CITY           SKY/WX    TMP DP  RH WIND       PRES   REMARKS
CEDAR RAPIDS   CLEAR     79  71  76 S8        29.93S HX  82
6HR MIN TEMP:  78; 6HR MAX TEMP:  83;

CHARLES CITY * CLEAR     81  75  83 S8        29.90F HX  86
CLINTON *      PTCLDY    81  72  74 S7        29.96F HX  84
DECORAH *      CLOUDY    79  72  78 S6        29.90F HX  82
DUBUQUE        PTCLDY    78  70  76 S7        29.95S HX  80
6HR MIN TEMP:  78; 6HR MAX TEMP:  83;

MONTICELLO *   CLEAR     81  72  74 S5        29.93S HX  84
OELWEIN *      CLEAR     79  73  83 S8        29.93S HX  82
WATERLOO       CLEAR     82  70  66 S9        29.89S HX  86
6HR MIN TEMP:  82; 6HR MAX TEMP:  86;

$$

IAZ064-065-067-068-078-030100-
   EAST CENTRAL IOWA

CITY           SKY/WX    TMP DP  RH WIND       PRES   REMARKS
DAVENPORT      CLOUDY    82  70  66 SW6       29.95S HX  86
6HR MIN TEMP:  82; 6HR MAX TEMP:  84;

IOWA CITY      MOCLDY    81  70  69 S7        29.94S HX  84
6HR MIN TEMP:  79; 6HR MAX TEMP:  85;

MT. PLEASANT * CLEAR     81  68  65 S5        29.94S HX  83
MUSCATINE *    CLEAR     84  70  61 S6        29.94S HX  88
QUAD CITIES    CLOUDY    83  69  62 S5        29.94S HX  86
6HR MIN TEMP:  83; 6HR MAX TEMP:  87;

$$

IAZ062-063-075>077-085>089-095>099-030100-
   SOUTHEAST IOWA

CITY           SKY/WX    TMP DP  RH WIND       PRES   REMARKS
BURLINGTON     CLEAR     83  68  60 S9        29.94F HX  86
6HR MIN TEMP:  83; 6HR MAX TEMP:  88;

FAIRFIELD *    CLEAR     82  68  61 S6        29.93F HX  85
FORT MADISON * CLEAR     82  70  65 S6        29.96S HX  86
KEOKUK *       CLEAR     84  68  58 S6        29.94F HX  87
OSKALOOSA *      N/A     80  69  69 S7        29.92F HX  83
CENTERVILLE *  CLEAR     77  73  88 SE5       29.95S
OTTUMWA        CLEAR     79  71  76 S7        29.91S HX  82
6HR MIN TEMP:  79; 6HR MAX TEMP:  86;

WASHINGTON *     N/A    N/A N/A N/A MISG        N/A
$$

ABBREVIATIONS USED IN REMARKS
   TC - TEMPERATURES IN CELSIUS
  WCI - WIND CHILL INDEX
   HX - HEAT INDEX
  VSB - VISIBILITY
$$



USA.gov is the U.S. government's official web portal to all federal, state and local government web resources and services.